F5OZP-13 Weather Reports


time (UTC)temp
C
wind
direction
speed
KPH
gust
KPH
rain 1hr
cm
rain 24hr
cm
rain mn
cm
humidity
%
barometer
mb
20260503212219 18 0.0 0.0 0.00 0.00 0.00 99 1013.8
20260503211719 18 0.0 0.0 0.00 0.00 0.00 99 1013.9
20260503211202 18 0.0 0.0 0.00 0.00 0.00 99 1013.7
20260503210659 18 0.0 0.0 0.00 0.00 0.00 99 1013.8
20260503210150 18 0.0 0.0 0.00 0.00 0.00 99 1013.8
20260503205642 18 0.0 0.0 0.00 0.00 0.00 99 1013.8
20260503205134 18 0.0 0.0 0.00 0.00 0.00 99 1013.8
20260503204634 18 0.0 0.0 0.00 0.00 0.00 99 1013.8
20260503204118 18 0.0 0.0 0.00 0.00 0.00 99 1013.7
20260503203609 18 0.0 0.0 0.00 0.00 0.00 99 1013.7
20260503203101 18 0.0 0.0 0.00 0.00 0.00 99 1013.7
20260503202553 18 0.0 0.0 0.00 0.00 0.00 99 1013.5
20260503202045 17 0.0 0.0 0.00 0.00 0.00 99 1013.5
20260503201545 17 0.0 0.0 0.00 0.00 0.00 99 1013.3
20260503201028 17 0.0 0.0 0.00 0.00 0.00 99 1013.3
20260503200525 17 0.0 0.0 0.00 0.00 0.00 99 1013.2
20260503200017 17 0.0 0.0 0.00 0.00 0.00 99 1013.1
20260503195509 17 0.0 0.0 0.00 0.00 0.00 99 1013.1
20260503195000 17 0.0 0.0 0.00 0.00 0.00 99 1012.9
20260503194500 17 0.0 0.0 0.00 0.00 0.00 99 1012.8
20260503193944 17 0.0 0.0 0.00 0.00 0.00 99 1012.8
20260503193436 17 0.0 0.0 0.00 0.00 0.00 99 1012.8
20260503192928 17 0.0 0.0 0.00 0.00 0.00 99 1012.8
20260503192420 17 0.0 0.0 0.00 0.00 0.00 99 1012.8
20260503191912 17 0.0 0.0 0.00 0.00 0.00 99 1012.8
20260503191416 17 0.0 0.0 0.00 0.00 0.00 99 1012.7
20260503190859 17 0.0 0.0 0.00 0.00 0.00 99 1012.6
20260503190351 17 0.0 0.0 0.00 0.00 0.00 99 1012.6
20260503185843 17 0.0 0.0 0.00 0.00 0.00 99 1012.6
20260503185335 17 0.0 0.0 0.00 0.00 0.00 99 1012.5
20260503184827 17 0.0 0.0 0.00 0.00 0.00 99 1012.5
20260503184327 17 0.0 0.0 0.00 0.00 0.00 99 1012.4
20260503183811 17 0.0 0.0 0.00 0.00 0.00 99 1012.3
20260503183303 17 0.0 0.0 0.00 0.00 0.00 99 1012.3
20260503182754 17 0.0 0.0 0.00 0.00 0.00 99 1012.3
20260503182246 17 0.0 0.0 0.00 0.00 0.00 99 1012.2
20260503181738 17 0.0 0.0 0.00 0.00 0.00 99 1012.2
20260503181238 17 0.0 0.0 0.00 0.00 0.00 99 1012.2
20260503180726 17 0.0 0.0 0.00 0.00 0.00 99 1012.0
20260503180218 17 0.0 0.0 0.00 0.00 0.00 99 1012.0
20260503175710 17 0.0 0.0 0.00 0.00 0.00 99 1012.0
20260503175202 17 0.0 0.0 0.00 0.00 0.00 99 1012.0
20260503174654 17 0.0 0.0 0.00 0.00 0.00 99 1012.0
20260503174154 17 0.0 0.0 0.00 0.00 0.00 99 1012.0
20260503173638 17 0.0 0.0 0.00 0.00 0.00 99 1012.1
20260503173130 17 0.0 0.0 0.00 0.00 0.00 99 1012.1
20260503172621 17 0.0 0.0 0.00 0.00 0.00 99 1012.1
20260503172113 18 0.0 0.0 0.00 0.00 0.00 99 1012.1
20260503171605 18 0.0 0.0 0.00 0.00 0.00 99 1012.1
20260503171105 18 0.0 0.0 0.00 0.00 0.00 99 1012.1
20260503170553 18 0.0 0.0 0.00 0.00 0.00 99 1012.0
20260503150804 20 0.0 0.0 0.00 0.00 0.00 99 1012.9
20260503150247 20 0.0 0.0 0.00 0.00 0.00 99 1012.9
20260503140120 20 0.0 0.0 0.00 0.00 0.00 99 1013.3
20260503130953 20 0.0 0.0 0.00 0.00 0.00 99 1013.6
20260503130457 20 0.0 0.0 0.00 0.00 0.00 99 1013.6
20260503110647 22 0.0 0.0 0.00 0.00 0.00 99 1014.4
20260503110147 23 0.0 0.0 0.00 0.00 0.00 99 1014.5
20260503090334 24 0.0 0.0 0.00 0.00 0.00 99 1015.0
20260503081213 24 0.0 0.0 0.00 0.00 0.00 99 1015.0
20260503080709 23 0.0 0.0 0.00 0.00 0.00 99 1015.1
20260503080201 24 0.0 0.0 0.00 0.00 0.00 99 1015.2
20260503072612 21 0.0 0.0 0.00 0.00 0.00 99 1015.1
20260503072056 21 0.0 0.0 0.00 0.00 0.00 99 1015.1
20260503071547 21 0.0 0.0 0.00 0.00 0.00 99 1015.0
20260503071039 20 0.0 0.0 0.00 0.00 0.00 99 1015.1
20260503070536 20 0.0 0.0 0.00 0.00 0.00 99 1015.1
20260503054838 16 0.0 0.0 0.00 0.00 0.00 99 1014.6
20260503054330 16 0.0 0.0 0.00 0.00 0.00 99 1014.6
20260503053822 16 0.0 0.0 0.00 0.00 0.00 99 1014.6
20260503053314 16 0.0 0.0 0.00 0.00 0.00 99 1014.6
20260503052806 16 0.0 0.0 0.00 0.00 0.00 99 1014.5
20260503052306 16 0.0 0.0 0.00 0.00 0.00 99 1014.5
20260503051749 16 0.0 0.0 0.00 0.00 0.00 99 1014.6
20260503051241 16 0.0 0.0 0.00 0.00 0.00 99 1014.6
20260503050737 16 0.0 0.0 0.00 0.00 0.00 99 1014.5
20260503050229 16 0.0 0.0 0.00 0.00 0.00 99 1014.5
20260503045721 16 0.0 0.0 0.00 0.00 0.00 99 1014.4
20260503045221 16 0.0 0.0 0.00 0.00 0.00 99 1014.4
20260503044705 16 0.0 0.0 0.00 0.00 0.00 99 1014.4
20260503044156 16 0.0 0.0 0.00 0.00 0.00 99 1014.3
20260503043648 15 0.0 0.0 0.00 0.00 0.00 99 1014.3
20260503043140 16 0.0 0.0 0.00 0.00 0.00 99 1014.4
20260503042632 15 0.0 0.0 0.00 0.00 0.00 99 1014.3
20260503042132 15 0.0 0.0 0.00 0.00 0.00 99 1014.4
20260503041616 16 0.0 0.0 0.00 0.00 0.00 99 1014.4